Precipitable_Water
1.88 2.03 2.04 1.63 0.85 0.73 0.56 0.62 0.78 0.68 0.68 0.88 0.92 0.82 0.74 0.78 0.76 0.62 1.31 1.36 1.48 1.54 1.69 1.88 1.87 1.83 1.95 1.97 2.07 2.10 2.13 2.10 1.98 1.97 1.91 1.88 1.88 1.86 1.88 1.88 1.90 1.83 1.74 1.76 1.78 1.86 1.82 1.78 1.68
1.81 1.87 1.80 1.34 0.76 0.54 0.58 0.76 0.69 0.77 0.87 0.96 0.86 0.84 0.76 0.69 1.05 1.13 1.12 1.37 1.44 1.47 1.64 1.79 1.91 1.82 1.96 1.93 1.98 2.02 2.05 2.04 1.97 1.88 1.90 1.89 1.90 1.85 1.83 1.84 1.92 1.94 1.97 1.88 1.80 1.80 1.75 1.69 1.64
1.75 1.83 1.29 1.01 0.86 0.61 0.63 0.81 0.83 0.89 0.98 0.99 0.84 0.94 0.83 0.77 1.06 1.05 1.21 1.36 1.40 1.46 1.64 1.77 1.88 2.00 1.85 1.91 1.93 1.96 1.98 2.00 1.93 1.94 1.98 1.99 1.85 1.79 1.83 1.77 1.78 1.95 2.08 1.89 1.82 1.80 1.70 1.67 1.64
1.61 1.54 1.25 0.93 0.81 0.84 0.80 0.87 0.94 0.91 0.98 1.02 0.90 0.70 0.95 1.14 1.03 1.15 1.17 1.25 1.31 1.47 1.64 1.82 1.86 1.92 1.88 1.91 2.00 1.98 1.97 1.96 1.93 1.92 1.98 2.00 1.99 1.90 1.75 1.79 1.77 1.77 1.82 1.76 1.72 1.73 1.71 1.64 1.62
1.39 1.16 0.90 0.83 0.86 0.94 1.00 0.97 1.00 0.95 0.96 0.99 0.97 0.73 0.80 1.09 1.27 1.21 1.14 1.20 1.25 1.44 1.61 1.81 1.87 1.95 1.99 1.96 1.95 1.99 1.93 1.93 1.88 1.92 1.97 1.97 1.98 1.96 1.88 1.73 1.75 1.72 1.70 1.78 1.83 1.74 1.59 1.47 1.53
0.86 1.02 0.76 0.73 0.80 0.91 0.97 1.02 0.97 0.99 1.07 1.11 1.05 0.95 0.93 1.29 1.20 1.19 1.19 1.20 1.37 1.46 1.58 1.72 1.80 1.94 2.06 2.02 1.97 2.03 2.02 2.00 1.90 1.90 1.97 1.98 1.95 1.99 1.91 1.92 1.78 1.73 1.72 1.79 1.68 1.81 1.57 1.36 1.45
0.73 0.76 0.68 0.73 0.78 0.79 0.89 1.03 0.91 0.95 0.96 1.01 1.21 1.04 1.17 1.29 1.33 1.27 1.27 1.32 1.46 1.55 1.57 1.67 1.71 1.83 1.92 2.01 1.99 1.98 2.06 2.02 1.98 1.97 1.95 1.88 1.88 1.94 1.87 1.87 1.88 1.86 1.83 1.80 1.66 1.76 1.41 1.43 1.59
0.79 0.78 0.65 0.67 0.62 0.69 0.87 0.92 0.98 0.92 0.93 1.18 1.20 0.93 0.97 1.29 1.50 1.36 1.35 1.35 1.50 1.55 1.58 1.60 1.66 1.67 1.76 1.82 1.88 1.87 1.91 1.97 1.98 1.93 1.92 1.93 1.88 1.95 1.82 1.80 1.82 1.81 1.85 1.83 1.75 1.77 1.33 1.50 1.56
0.88 0.59 0.55 0.61 0.59 0.60 0.77 0.72 0.88 0.97 0.90 1.00 1.00 1.05 1.25 1.44 1.52 1.37 1.30 1.29 1.42 1.52 1.59 1.62 1.61 1.59 1.65 1.66 1.66 1.73 1.78 1.85 1.88 1.86 1.98 2.01 2.15 2.06 1.98 1.70 1.73 1.78 1.74 1.80 1.64 1.58 1.48 1.47 1.49
0.73 0.45 0.56 0.75 0.68 0.62 0.66 0.64 0.67 0.69 0.72 0.76 0.82 1.12 1.32 1.45 1.44 1.25 1.18 1.11 1.21 1.39 1.53 1.59 1.55 1.50 1.56 1.54 1.62 1.62 1.71 1.75 1.80 1.84 1.99 2.04 2.10 2.10 2.09 1.80 1.61 1.81 1.51 1.55 1.52 1.49 1.60 1.47 1.55
0.72 0.46 0.65 0.73 0.71 0.68 0.62 0.60 0.62 0.59 0.52 0.54 0.58 0.78 1.13 1.27 1.34 1.29 1.16 1.14 1.15 1.28 1.48 1.56 1.54 1.50 1.47 1.44 1.52 1.58 1.57 1.66 1.79 1.69 1.77 1.94 1.95 2.00 1.95 1.98 1.73 1.53 1.50 1.50 1.45 1.59 1.59 1.41 1.44
0.53 0.64 0.64 0.55 0.62 0.62 0.56 0.63 0.59 0.59 0.56 0.52 0.65 0.75 0.93 1.20 1.23 1.26 1.18 1.14 1.19 1.24 1.32 1.45 1.55 1.51 1.44 1.48 1.48 1.58 1.55 1.63 1.62 1.66 1.76 1.84 1.80 1.84 1.82 1.85 1.84 1.43 1.40 1.60 1.55 1.59 1.60 1.39 1.33
0.50 0.49 0.47 0.48 0.49 0.51 0.55 0.50 0.51 0.49 0.51 0.50 0.60 0.74 0.75 1.03 1.21 1.31 1.31 1.26 1.18 1.19 1.37 1.45 1.53 1.51 1.49 1.51 1.53 1.57 1.56 1.56 1.58 1.79 1.79 1.81 1.79 1.77 1.76 1.75 1.75 1.60 1.47 1.74 1.52 1.50 1.42 1.34 1.33
0.41 0.39 0.38 0.40 0.38 0.38 0.37 0.39 0.41 0.35 0.43 0.40 0.50 0.65 0.73 0.82 1.15 1.27 1.30 1.29 1.23 1.22 1.34 1.53 1.56 1.58 1.51 1.42 1.49 1.54 1.57 1.56 1.58 1.74 1.77 1.84 1.75 1.77 1.80 1.76 1.70 1.69 1.56 1.53 1.63 1.53 1.38 1.30 1.27
0.37 0.31 0.33 0.32 0.34 0.32 0.37 0.29 0.28 0.33 0.37 0.38 0.48 0.55 0.67 0.80 1.07 1.15 1.31 1.29 1.32 1.30 1.38 1.44 1.54 1.62 1.57 1.40 1.39 1.52 1.58 1.66 1.60 1.65 1.71 1.79 1.77 1.69 1.73 1.79 1.75 1.75 1.83 1.69 1.54 1.46 1.54 1.42 1.37
0.34 0.33 0.25 0.31 0.32 0.32 0.30 0.23 0.29 0.33 0.33 0.33 0.41 0.53 0.63 0.76 0.98 1.25 1.37 1.42 1.46 1.47 1.40 1.48 1.54 1.55 1.57 1.52 1.44 1.42 1.49 1.58 1.61 1.66 1.71 1.72 1.71 1.78 1.71 1.75 1.75 1.84 1.91 1.90 1.79 1.63 1.50 1.47 1.45
0.28 0.22 0.23 0.26 0.31 0.29 0.28 0.24 0.30 0.32 0.31 0.31 0.33 0.47 0.63 0.73 0.94 1.26 1.45 1.48 1.49 1.55 1.53 1.49 1.56 1.53 1.55 1.58 1.54 1.52 1.46 1.54 1.61 1.71 1.77 1.79 1.75 1.72 1.71 1.70 1.77 1.90 1.93 1.90 1.85 1.81 1.71 1.51 1.44
0.21 0.22 0.24 0.24 0.27 0.28 0.26 0.25 0.29 0.32 0.32 0.34 0.34 0.40 0.58 0.78 0.88 1.16 1.41 1.53 1.55 1.61 1.64 1.57 1.58 1.60 1.62 1.65 1.62 1.53 1.49 1.45 1.54 1.66 1.75 1.78 1.88 1.85 1.75 1.77 1.83 1.92 1.93 1.90 1.81 1.71 1.77 1.72 1.64
0.26 0.25 0.24 0.26 0.28 0.26 0.26 0.25 0.30 0.37 0.39 0.39 0.39 0.45 0.57 0.79 0.96 1.12 1.31 1.41 1.20 1.49 1.58 1.64 1.56 1.61 1.67 1.63 1.50 1.42 1.28 1.35 1.39 1.45 1.60 1.77 1.78 1.86 1.86 1.80 1.82 1.86 1.84 1.85 1.86 1.81 1.77 1.78 1.87
0.28 0.25 0.24 0.27 0.28 0.27 0.27 0.26 0.32 0.39 0.41 0.45 0.47 0.49 0.55 0.72 0.93 1.05 1.17 1.33 1.36 1.43 1.55 1.63 1.71 1.72 1.64 1.64 1.66 1.59 1.50 1.39 1.40 1.44 1.47 1.58 1.72 1.78 1.81 1.83 1.82 1.83 1.82 1.82 1.81 1.82 1.76 1.79 1.86
0.28 0.26 0.26 0.24 0.27 0.29 0.27 0.24 0.31 0.39 0.45 0.49 0.52 0.54 0.57 0.60 0.72 0.94 1.12 1.28 1.39 1.42 1.49 1.58 1.71 1.78 1.80 1.82 1.76 1.71 1.70 1.62 1.49 1.44 1.46 1.48 1.61 1.68 1.78 1.84 1.86 1.86 1.88 1.80 1.80 1.81 1.74 1.64 1.81
0.27 0.31 0.29 0.27 0.25 0.22 0.28 0.19 0.24 0.36 0.37 0.42 0.46 0.52 0.55 0.59 0.65 0.76 0.86 1.01 1.20 1.27 1.41 1.51 1.60 1.69 1.79 1.85 1.81 1.74 1.55 1.43 1.46 1.46 1.54 1.52 1.64 1.62 1.69 1.80 1.86 1.85 1.83 1.79 1.81 1.88 1.87 1.85 1.74
0.31 0.33 0.31 0.29 0.27 0.26 0.26 0.23 0.26 0.35 0.32 0.38 0.47 0.52 0.58 0.66 0.70 0.70 0.75 0.82 0.98 1.13 1.25 1.39 1.48 1.52 1.64 1.70 1.75 1.78 1.73 1.73 1.60 1.64 1.58 1.57 1.61 1.67 1.64 1.68 1.76 1.78 1.81 1.80 1.82 1.84 1.88 1.89 1.93
0.38 0.33 0.33 0.31 0.28 0.22 0.27 0.25 0.24 0.28 0.36 0.43 0.49 0.55 0.59 0.62 0.67 0.79 0.85 0.87 0.92 0.98 1.05 1.23 1.36 1.45 1.50 1.60 1.71 1.72 1.74 1.78 1.76 1.63 1.55 1.58 1.56 1.61 1.68 1.66 1.68 1.71 1.72 1.72 1.75 1.84 1.94 1.99 2.05
0.37 0.31 0.25 0.23 0.22 0.21 0.30 0.26 0.27 0.36 0.48 0.50 0.51 0.57 0.64 0.71 0.71 0.74 0.79 0.85 0.94 1.00 0.99 1.01 1.17 1.27 1.47 1.54 1.59 1.75 1.78 1.82 1.80 1.81 1.74 1.56 1.56 1.59 1.57 1.63 1.63 1.61 1.65 1.67 1.73 1.76 1.83 1.95 1.88
0.32 0.32 0.25 0.20 0.20 0.23 0.31 0.25 0.29 0.49 0.59 0.62 0.62 0.62 0.68 0.71 0.77 0.80 0.81 0.82 0.88 0.92 0.94 0.99 1.09 1.14 1.32 1.47 1.54 1.74 1.86 1.84 1.84 1.89 1.86 1.83 1.66 1.60 1.68 1.64 1.63 1.63 1.63 1.66 1.69 1.70 1.77 1.91 1.89
0.34 0.30 0.37 0.30 0.31 0.25 0.28 0.33 0.45 0.57 0.57 0.59 0.61 0.61 0.64 0.68 0.72 0.77 0.81 0.87 0.92 0.94 0.93 0.96 1.10 1.20 1.28 1.43 1.56 1.62 1.75 1.76 1.82 1.86 1.94 1.94 1.92 1.86 1.69 1.69 1.64 1.63 1.65 1.65 1.67 1.60 1.57 1.75 1.92
0.38 0.42 0.32 0.34 0.23 0.22 0.28 0.30 0.33 0.42 0.46 0.50 0.54 0.59 0.63 0.68 0.74 0.82 0.84 0.89 0.94 1.01 1.06 1.08 1.19 1.24 1.40 1.50 1.60 1.62 1.66 1.73 1.77 1.84 1.84 1.91 1.95 1.93 1.94 1.73 1.64 1.62 1.60 1.61 1.66 1.56 1.52 1.60 1.77
0.35 0.34 0.36 0.35 0.32 0.24 0.22 0.26 0.42 0.40 0.46 0.47 0.53 0.60 0.67 0.70 0.79 0.88 0.91 0.96 0.94 1.03 1.10 1.14 1.23 1.28 1.41 1.56 1.63 1.66 1.71 1.76 1.78 1.72 1.74 1.84 1.94 1.95 1.94 1.93 1.77 1.52 1.52 1.58 1.66 1.56 1.56 1.51 1.55
0.39 0.36 0.37 0.29 0.30 0.32 0.30 0.27 0.43 0.46 0.49 0.52 0.53 0.59 0.66 0.77 0.84 0.91 0.97 0.97 0.95 0.96 1.05 1.11 1.22 1.32 1.44 1.53 1.58 1.65 1.77 1.81 1.76 1.71 1.74 1.81 1.84 1.92 1.93 1.97 1.92 1.76 1.53 1.55 1.66 1.67 1.57 1.50 1.41
Wind_Speed
6 8 4 7 8 10 14 14 12 16 14 14 14 12 10 9 7 7 6 11 14 15 15 15 15 17 18 18 18 19 19 19 19 19 18 18 18 19 19 19 18 17 16 15 14 13 13 12 12
7 8 6 6 7 10 12 13 15 14 14 14 14 14 13 11 9 9 12 12 15 15 16 16 16 18 18 18 18 19 19 19 19 19 18 18 18 18 18 17 16 15 14 14 13 12 12 11 11
7 8 5 4 3 7 8 11 11 11 12 13 13 14 14 13 11 11 10 14 15 15 15 15 16 16 17 19 19 19 19 19 18 18 17 17 17 17 17 16 15 14 13 13 12 12 11 11 11
7 7 7 7 6 4 5 8 9 9 11 13 12 13 14 14 12 9 12 14 15 14 15 15 15 16 17 19 19 19 18 18 19 17 17 16 16 16 16 15 14 13 13 12 12 11 11 11 12
8 7 7 9 5 3 5 6 9 9 9 11 11 11 12 12 12 10 11 12 13 14 14 14 15 14 15 17 18 17 17 17 17 16 16 15 16 15 15 14 14 13 12 12 11 11 11 12 12
7 7 8 8 11 8 6 7 8 9 9 8 9 10 11 10 11 10 9 10 11 12 14 14 14 14 14 14 16 16 16 16 16 16 15 15 15 14 14 14 14 13 13 12 11 12 12 12 13
7 7 8 9 7 6 5 7 7 7 9 9 7 8 8 7 8 9 8 8 9 11 13 13 13 13 14 14 14 15 16 16 16 15 14 14 14 14 14 14 13 13 13 12 12 12 12 12 13
6 5 5 5 6 6 5 5 6 6 6 6 7 6 5 3 6 7 7 6 8 11 12 13 13 13 14 14 14 14 15 15 16 15 14 14 15 14 14 13 13 13 13 12 12 12 12 13 12
4 4 2 4 4 7 7 7 6 5 5 4 6 6 5 5 6 6 7 6 7 10 12 13 13 13 13 13 14 14 15 14 15 15 15 15 15 14 13 13 13 12 13 13 12 12 12 12 12
3 3 2 3 5 6 8 7 7 6 8 6 5 4 2 3 5 6 6 6 7 10 12 13 13 13 13 13 14 14 15 15 15 15 15 15 14 14 13 13 13 12 12 13 12 13 12 13 12
3 4 4 7 8 7 6 7 6 7 8 9 7 4 2 4 5 6 6 7 7 9 11 13 13 13 13 13 14 13 14 15 15 15 15 15 15 14 13 13 13 13 12 12 13 13 13 13 12
5 6 8 9 8 8 8 8 9 10 11 11 7 4 5 7 7 6 7 8 8 9 10 12 13 12 13 13 13 13 14 14 15 15 16 15 15 15 14 14 13 13 13 13 13 13 13 13 13
7 8 9 11 12 13 13 13 12 12 11 10 6 4 6 8 8 9 8 8 9 10 10 10 11 11 12 13 13 13 13 14 15 15 15 15 15 15 15 14 14 13 14 13 13 13 13 13 14
8 11 12 12 12 10 10 10 7 8 9 9 5 6 8 10 10 11 11 10 10 10 10 10 10 10 11 12 12 13 13 14 15 15 16 16 15 15 15 15 15 14 14 14 14 13 13 14 14
9 11 11 5 5 4 6 6 4 8 9 8 5 5 6 10 10 14 12 12 13 11 11 10 10 9 10 11 12 13 13 13 15 15 16 17 16 16 16 15 15 15 14 14 14 14 14 14 15
7 5 6 6 7 5 6 7 9 10 8 9 8 7 7 7 13 12 13 12 13 13 12 11 10 10 10 11 10 12 13 13 14 15 17 18 18 18 17 16 16 15 15 15 15 14 15 15 16
5 7 8 8 7 8 8 10 12 13 11 9 10 9 9 9 11 12 14 14 13 15 15 14 13 12 12 11 10 11 12 13 14 14 14 17 19 19 19 18 17 17 16 15 15 15 16 16 17
8 8 7 9 8 9 9 12 13 11 10 11 10 10 10 10 11 14 15 15 17 15 17 17 15 15 14 13 12 12 12 12 13 14 15 16 17 20 21 19 19 19 18 18 17 17 17 17 18
7 8 9 9 8 9 10 11 10 9 8 11 10 8 7 10 10 13 16 17 17 17 17 18 19 18 17 16 15 14 14 13 13 13 15 16 16 17 19 20 20 20 19 19 18 18 19 19 18
7 8 8 9 7 7 10 8 9 9 7 8 9 9 7 5 8 11 14 17 20 20 19 18 20 21 21 20 19 17 16 15 15 14 14 16 17 18 18 18 18 20 19 19 19 18 18 19 19
7 7 7 8 9 7 11 6 8 8 7 7 7 7 7 6 4 6 10 14 18 22 24 24 24 26 25 23 22 21 19 17 16 16 15 15 16 17 18 18 17 18 19 19 19 19 20 20 19
7 8 9 9 8 9 10 9 8 9 9 8 8 7 7 6 6 6 7 11 15 18 25 26 25 26 28 28 26 26 23 22 20 19 17 16 16 17 17 17 18 18 18 20 20 20 20 20 20
6 7 8 10 9 10 9 10 8 9 9 8 9 9 9 8 8 9 10 12 14 16 18 24 27 28 28 30 30 29 28 25 24 22 20 20 18 18 18 17 17 17 18 18 20 21 22 22 21
8 9 9 10 10 13 11 12 12 11 10 9 9 9 11 11 12 12 13 14 15 17 19 21 27 29 30 31 33 33 32 29 27 26 24 22 21 20 20 19 18 18 18 18 19 20 21 22 22
9 11 12 12 11 14 11 13 15 11 10 9 11 12 13 13 14 16 17 18 18 20 21 21 24 31 34 35 33 35 35 34 32 29 27 26 23 22 22 22 20 19 19 19 19 20 21 22 25
10 12 13 14 14 15 11 13 10 11 9 11 13 14 15 16 17 18 18 19 21 22 23 25 26 27 34 38 37 34 36 35 35 34 30 28 26 25 23 23 22 21 20 19 19 20 20 21 21
11 13 13 13 13 14 13 13 14 10 12 15 16 17 18 19 19 19 19 19 20 21 21 22 24 26 29 34 37 37 36 36 35 35 35 32 30 27 26 25 24 23 22 20 19 19 19 19 17
12 11 12 11 13 14 13 14 12 12 15 17 19 20 21 21 21 21 21 21 21 21 20 21 21 23 26 30 36 37 37 37 36 35 36 36 33 30 27 27 25 24 23 22 20 18 17 17 16
11 11 11 12 14 15 16 15 14 19 21 22 23 22 22 23 24 24 23 24 23 23 21 21 21 21 22 26 31 37 36 36 36 36 36 37 36 34 31 29 27 26 24 23 21 19 17 16 15
12 12 14 16 14 16 19 21 19 20 23 25 26 25 24 23 24 24 24 24 23 23 23 21 20 19 20 26 29 33 35 36 36 35 34 36 37 36 35 33 30 28 26 24 22 21 19 18 16
Wind_Direction
47 30 62 50 60 55 50 43 50 53 54 49 63 54 41 40 43 41 93 129 134 134 134 138 145 153 153 154 154 153 151 151 150 148 148 147 147 145 144 143 141 142 143 141 142 141 138 132 125
54 43 69 55 49 55 49 41 47 56 57 58 56 50 42 41 52 65 113 132 136 134 135 132 138 150 152 152 155 156 155 152 151 152 151 151 151 150 150 148 146 146 147 146 147 146 144 141 134
51 37 47 20 60 61 50 40 46 58 54 43 49 45 44 44 55 98 111 132 138 139 139 136 138 139 152 156 153 154 155 155 155 156 155 154 155 156 156 156 154 151 152 150 149 149 149 146 141
45 42 38 43 102 93 58 36 45 41 47 43 51 52 50 44 72 83 121 133 140 144 145 143 142 139 138 155 157 152 154 155 158 157 157 159 160 163 160 162 162 159 157 157 154 152 152 150 146
34 37 39 45 64 120 40 41 38 28 45 46 41 52 50 56 57 91 119 136 143 151 154 154 152 150 148 150 154 157 158 159 161 159 162 162 163 166 167 166 166 166 164 163 163 161 156 154 151
40 47 63 73 62 80 54 45 29 30 34 35 39 50 48 55 68 93 115 137 149 155 161 162 164 163 163 160 164 164 164 163 165 166 166 168 168 168 168 171 171 170 170 168 166 165 163 159 156
44 59 71 70 72 56 44 23 11 14 18 26 47 35 44 55 70 98 108 133 153 163 167 168 170 170 170 171 169 171 171 171 170 170 170 171 172 171 169 172 173 172 171 171 168 167 167 164 162
46 55 81 59 46 26 9 355 351 356 16 40 35 24 31 66 86 98 106 128 154 165 173 175 174 175 174 174 176 176 177 178 178 177 176 175 173 172 170 172 174 175 175 175 173 172 172 170 170
37 44 61 41 34 8 353 338 359 5 360 349 345 354 20 104 110 107 111 121 155 169 176 178 179 179 179 179 179 180 181 182 183 183 181 178 177 177 176 178 177 178 179 179 181 181 179 178 180
359 5 346 357 345 341 345 334 331 336 334 330 324 2 62 134 137 139 133 134 146 167 175 178 179 181 181 182 182 183 184 186 187 187 189 188 187 184 183 183 184 184 185 187 187 186 185 186 188
343 320 326 312 316 315 324 325 326 327 327 308 289 295 186 166 163 157 152 148 147 157 166 176 179 181 182 183 184 186 188 189 190 193 194 196 194 191 190 188 188 191 190 189 189 190 192 194 195
309 297 299 306 307 306 307 310 307 302 305 320 303 273 212 198 188 180 174 159 152 152 162 168 177 180 183 184 186 188 189 191 194 196 197 197 198 197 196 195 194 195 195 195 195 196 199 200 202
290 306 303 297 297 293 293 294 300 293 301 317 304 245 225 210 210 200 186 176 165 163 160 162 168 179 183 186 189 191 194 197 198 199 199 199 201 202 201 200 200 200 200 201 202 205 207 208 209
310 305 303 302 294 290 290 292 312 310 315 322 299 249 236 228 216 206 196 191 185 177 173 171 172 175 183 190 193 196 198 201 203 204 205 205 205 204 205 205 206 206 206 208 209 211 213 214 215
316 321 325 360 349 342 322 307 307 322 320 313 305 270 248 232 218 207 207 205 198 193 187 186 186 184 186 190 197 201 206 208 208 210 211 211 211 210 209 209 209 211 212 213 216 217 219 220 222
321 329 336 343 351 348 328 328 328 338 332 326 307 274 254 248 224 214 211 211 204 204 203 198 196 197 196 198 200 205 209 210 212 216 219 216 216 216 215 215 214 215 217 219 221 223 226 228 229
332 326 324 325 334 330 329 314 332 328 321 322 310 280 261 256 231 221 216 212 213 214 214 212 209 207 206 206 208 209 211 214 216 217 216 217 219 219 219 219 219 220 222 225 228 230 233 234 236
318 317 315 304 319 317 316 319 327 331 327 320 310 294 267 256 242 227 219 220 221 223 221 220 219 217 216 215 216 217 216 216 218 219 219 219 220 220 221 222 224 226 229 232 233 236 238 241 242
306 306 306 307 314 322 340 337 344 344 348 358 353 336 293 261 251 231 226 229 210 227 220 225 224 225 222 222 220 221 221 220 221 223 222 221 221 218 220 223 226 228 231 234 238 239 242 244 246
285 298 300 309 329 317 335 337 341 348 351 358 2 5 357 304 254 235 231 235 233 238 227 229 232 230 229 228 228 226 225 227 226 225 225 223 221 220 221 222 225 227 230 234 237 239 242 246 246
277 278 297 302 316 314 321 305 335 334 331 335 347 349 356 354 325 266 248 243 243 239 240 243 241 235 233 231 229 228 228 228 226 226 225 223 221 221 222 223 225 227 230 235 239 242 244 248 248
289 286 286 295 303 314 324 314 306 318 324 323 323 332 336 331 323 304 281 268 259 260 249 245 242 238 236 233 230 228 228 228 228 226 225 225 223 221 222 225 228 232 235 238 242 245 246 249 248
306 309 295 297 296 303 300 298 303 305 303 309 312 313 319 318 310 303 291 284 276 270 264 248 243 242 239 235 233 230 231 231 231 229 227 226 227 226 227 229 231 235 238 243 245 247 249 251 251
298 300 304 299 295 287 303 294 297 295 298 295 297 304 306 305 304 301 295 291 284 277 270 261 250 245 242 237 235 233 232 232 231 230 229 229 230 230 232 234 237 240 243 246 249 250 251 251 254
308 313 305 295 291 295 306 293 292 298 289 290 296 297 299 299 297 297 297 294 288 282 277 270 264 251 244 239 237 234 232 232 232 231 232 231 233 233 234 236 238 242 245 249 253 254 255 258 270
303 307 301 296 293 297 300 291 301 297 285 291 297 296 299 300 300 298 297 296 291 285 281 272 270 263 246 239 236 235 232 232 233 233 233 234 234 236 237 238 240 243 247 250 254 257 259 263 269
295 296 302 295 297 294 294 294 294 286 284 290 292 297 298 300 300 298 297 297 292 290 286 281 272 270 250 238 234 233 231 231 233 234 233 234 235 238 238 239 241 243 246 250 254 257 259 264 268
296 293 296 299 298 296 298 295 293 298 299 300 297 296 296 297 298 296 295 295 293 292 284 285 282 275 252 240 232 231 232 232 234 235 234 234 235 236 238 239 240 243 244 248 251 255 259 261 265
287 290 303 299 295 295 296 290 292 292 296 295 295 296 294 294 294 294 292 293 291 290 284 283 283 278 254 239 235 231 232 232 233 235 236 234 233 235 236 238 241 241 243 245 246 250 254 257 260
284 287 292 296 295 290 292 291 294 295 298 295 293 294 294 293 292 292 291 292 290 288 284 280 281 279 262 243 236 232 232 232 233 235 234 234 233 234 236 238 239 240 240 242 244 247 250 253 256